Location: *
(45.6333°N, 17.8833°E)
Time: 05:32:31
(UTC+00:00)

Daily predictions for brighter satellites

Satellite Brightness Start Highest point End
(mag) Time Altitude Azimuth Time Altitude Azimuth Time Altitude Azimuth
Cosmos 2278 Rocket 3.7 00:19:50 33° NE 00:19:50 33° NE 00:23:01 10° NNE
ARIANE 5 R/B 4.5 00:29:33 10° NE 00:32:51 23° ENE 00:32:51 23° ENE
ADEOS II 3.5 00:45:07 10° NNE 00:49:19 32° E 00:49:19 32° E
Resurs 1-4 Rocket 3.2 00:49:46 10° NNE 00:53:02 39° N 00:53:02 39° N
ATLAS 5 CENTAUR R/B 3.2 01:10:13 34° NNE 01:10:13 34° NNE 01:13:10 10° NNE
CZ-2D R/B 3.1 01:11:45 10° N 01:15:14 38° NNW 01:15:14 38° NNW
Cosmos 2082 Rocket 3.7 01:14:10 10° NNW 01:16:33 26° NW 01:16:33 26° NW
Cosmos 2297 4.0 01:21:08 62° E 01:21:08 62° E 01:26:31 10° NNE
Cosmos 2142 Rocket 4.4 01:15:11 10° N 01:21:21 79° E 01:21:44 75° ESE
NOSS 3-2 (A) 4.4 01:21:11 33° SE 01:22:02 34° ESE 01:27:40 10° NE
CZ-4B R/B 4.3 01:26:01 15° N 01:26:01 15° N 01:26:46 10° N
Lacrosse 5 3.8 01:26:32 20° NNW 01:28:05 23° N 01:32:06 10° NE
IRS-1C 4.3 01:22:53 10° NNE 01:27:32 67° N 01:27:32 67° N
Cosmos 841 Rocket 3.9 01:30:28 56° ESE 01:30:28 56° ESE 01:35:30 10° NNE
SL-4 R/B 4.1 01:33:08 21° NE 01:33:08 21° NE 01:34:46 10° ENE
Cosmos 2228 Rocket 3.9 01:33:13 50° ENE 01:33:13 50° ENE 01:37:14 10° NNE
IRS-1D 4.1 01:27:47 10° N 01:32:06 52° NNW 01:32:06 52° NNW
ATLAS 3B R/B 4.4 01:31:21 14° SSE 01:35:05 23° ESE 01:39:59 10° ENE
Cosmos 2344 4.1 01:32:59 36° SSE 01:35:39 50° ESE 01:43:18 10° NE
SJ 16-02 3.7 01:32:31 10° NNW 01:33:15 15° NNW 01:33:15 15° NNW
Cosmos 2369 Rocket 4.0 01:38:10 17° SE 01:41:16 26° ESE 01:45:55 10° NE
Cosmos 1606 3.9 01:43:29 41° ENE 01:43:29 41° ENE 01:46:30 10° NNE
SL-16 R/B 4.2 01:46:30 19° NW 01:46:30 19° NW 01:48:39 10° NW
Cosmos 2084 4.0 01:45:42 58° E 01:45:42 58° E 01:49:34 10° NE
ATLAS 5 CENTAUR R/B 3.7 01:50:02 20° NE 01:50:02 20° NE 01:51:18 10° NE
Cosmos 1570 Rocket 4.1 01:50:00 62° NW 01:50:00 62° NW 01:54:59 10° NNE
USA 267 4.4 01:48:59 10° E 01:54:58 40° NNE 02:00:58 10° NW
ISS -1.2 01:59:40 16° ESE 01:59:40 16° ESE 02:00:28 10° ESE
Cosmos 972 Rocket 4.4 01:52:59 10° NNW 01:56:37 47° NW 01:56:37 47° NW
Lacrosse 5 rocket 3.3 01:56:02 17° NNW 01:58:28 28° NNE 02:02:15 10° E
Cosmos 192 4.2 02:01:22 70° WNW 02:01:22 70° WNW 02:06:15 10° NNE
Cosmos 2278 Rocket 3.5 02:01:41 26° NW 02:01:56 26° NW 02:06:38 10° N
Cosmos 2279 Rocket 3.9 01:57:30 10° NNW 02:03:41 64° W 02:05:14 49° SSW
IRIDIUM 106 4.2 02:07:30 51° S 02:08:53 85° W 02:14:08 10° N
FALCON 9 DEB 3.8 02:10:01 54° ENE 02:10:01 54° ENE 02:12:50 10° ENE
CRYOSAT 2 4.5 02:10:43 54° WNW 02:10:43 54° WNW 02:15:06 10° NNW
ARIANE 5 R/B 2.8 02:08:05 10° N 02:13:01 47° WNW 02:13:12 46° WNW
Meteor 1-14 Rocket 4.4 02:09:41 10° N 02:15:14 69° ENE 02:20:45 10° SSE
Meteor 1-28 Rocket 3.3 02:17:15 65° NNW 02:17:15 65° NNW 02:20:31 10° NNW
Meteor 1-25 Rocket 4.1 02:11:00 10° NNW 02:16:47 86° W 02:22:26 10° S
Cosmos 972 4.2 02:14:38 10° NNW 02:19:47 84° WSW 02:24:40 10° SSE
CENTAUR R/B 3.5 02:16:29 18° S 02:20:33 41° ESE 02:26:52 10° NE
Unknown 3.4 02:22:21 63° N 02:22:21 63° N 02:25:31 10° NE
Cosmos 967 Rocket 4.4 02:17:22 10° NW 02:23:45 66° WSW 02:30:08 10° SSE
IDEFIX/ARIANE 42P 3.3 02:19:15 10° NNE 02:24:24 52° E 02:29:32 10° S
USA 238 DEB 3.6 02:22:13 37° SW 02:25:08 80° NW 02:32:07 10° NE
USA 238 3.6 02:22:19 37° SW 02:25:15 81° NW 02:32:15 10° NE
Cosmos 1763 Rocket 4.3 02:24:48 32° WNW 02:25:19 33° WNW 02:30:06 10° N
BREEZE-M DEB (TANK) 4.1 02:22:43 36° W 02:25:28 90° SSE 02:45:23 10° E
Meteor 1-22 4.5 02:20:51 10° NNW 02:26:11 68° W 02:30:18 17° S
Unknown 4.4 02:25:59 35° SSE 02:26:39 38° SE 02:30:17 10° ENE
ADEOS II 2.7 02:24:47 10° N 02:29:33 36° WNW 02:30:15 34° W
CZ-2D R/B 4.1 02:26:16 10° N 02:29:44 37° WNW 02:29:44 37° WNW
Meteor 1-26 Rocket 4.0 02:28:37 31° SSW 02:31:19 76° WNW 02:36:51 10° N
Cosmos 1707 Rocket 4.0 02:28:29 17° S 02:31:49 62° E 02:36:12 10° NNE
Cosmos 540 Rocket 3.6 02:30:44 43° WSW 02:32:04 55° WNW 02:37:10 10° NNE
Cosmos 1933 4.4 02:34:13 30° NW 02:34:13 30° NW 02:37:11 10° N
Resurs 1-4 Rocket 4.1 02:31:45 10° NNW 02:34:01 13° NW 02:34:06 13° NW
SWARM C 4.4 02:30:42 10° N 02:34:04 87° W 02:34:29 66° S
SWARM A 4.1 02:30:50 10° N 02:34:00 69° WNW 02:34:00 69° WNW
Cosmos 1125 Rocket 3.5 02:32:32 10° NNW 02:37:54 89° NE 02:43:13 10° SSE
Nadezhda 4 Rocket 3.9 02:34:06 20° SSW 02:38:29 74° W 02:44:38 10° N
Unknown 3.8 02:40:06 40° SSW 02:41:08 56° SE 02:44:54 10° ENE
H-2A R/B 2.9 02:38:47 10° NNE 02:42:35 56° ESE 02:45:57 13° S
Cosmos 1943 Rocket 2.1 02:39:35 24° SSW 02:43:01 87° ESE 02:48:35 10° NNE
CZ-2C R/B 3.5 02:40:32 10° N 02:44:12 35° WNW 02:44:24 34° WNW
Cosmos 1733 Rocket 4.1 02:40:08 10° N 02:44:28 48° ENE 02:48:46 10° SSE
Unknown 3.4 02:44:35 46° WNW 02:45:16 57° NNW 02:48:45 10° NE
SeaSat 1 2.4 02:41:21 10° NNE 02:46:19 87° WNW 02:49:25 23° SSW
SL-24 DEB 4.1 02:43:48 10° S 02:48:25 76° W 02:53:08 10° N
PSLV R/B 3.5 02:44:41 10° NNE 02:49:07 90° WNW 02:52:38 16° SSW
Atlas Centaur 2 4.1 02:46:20 18° SSW 02:49:49 25° S 02:56:07 10° ESE
ATLAS 5 CENTAUR R/B 3.8 02:51:45 12° NW 02:54:11 16° NNW 02:57:18 10° NNE
CZ-2C R/B 3.6 02:51:12 10° NNE 02:55:47 42° E 03:00:30 10° S
COSMOS 2487 3.1 02:55:38 10° NNW 02:59:06 55° ENE 03:02:30 10° SSE
BREEZE-M DEB (TANK) 3.6 02:53:12 20° WSW 03:01:23 84° SSE 03:05:11 10° E
USA 215 3.3 02:56:16 10° NE 03:02:50 78° SE 03:08:20 16° SW
Cosmos 1869 Rocket 4.2 03:00:00 10° NNW 03:04:03 34° W 03:06:55 17° SSW
Cosmos 220 Rocket 4.0 03:01:34 13° SSW 03:05:28 86° ESE 03:09:47 10° NNE
Falcon 9 debris 4.1 03:06:56 22° WNW 03:08:36 37° NNW 03:11:52 10° NE
Meteor 2-6 Rocket 4.3 03:03:15 10° S 03:09:02 88° W 03:15:01 10° N
Meteor 1-10 Rocket 4.4 03:03:25 10° S 03:09:18 84° E 03:15:16 10° NNE
SL-4 R/B 2.7 03:08:45 12° NW 03:11:46 41° NNE 03:15:14 10° E
Unknown 4.3 03:09:11 16° SSW 03:12:16 48° SE 03:16:16 10° ENE
Lacrosse 5 3.6 03:07:52 10° NW 03:12:23 30° NNE 03:16:53 10° E
NOSS 3-2 (A) 3.8 03:08:36 20° WSW 03:12:36 51° NW 03:19:06 10° NNE
NOSS 3-2 (C) 3.5 03:08:29 18° SW 03:12:59 70° NW 03:19:39 10° NE
Unknown 4.3 03:10:44 16° SSW 03:13:52 49° SE 03:17:53 10° ENE
Meteor 1-11 Rocket 4.0 03:08:38 10° N 03:14:19 71° ENE 03:19:50 10° SSE
Unknown 4.3 03:11:38 16° SSW 03:14:47 50° SE 03:18:48 10° ENE
Unknown 4.2 03:13:59 15° SW 03:17:14 52° SE 03:21:16 10° ENE
Cosmos 1315 Rocket 4.1 03:14:17 10° SSE 03:18:12 45° E 03:22:10 10° NNE
Cosmos 2026 Rocket 4.0 03:12:08 10° S 03:18:22 80° W 03:24:46 10° N
Unknown 4.2 03:16:35 18° WNW 03:18:43 36° NNW 03:22:02 10° NE
Unknown 4.1 03:15:43 15° SW 03:18:58 56° SE 03:23:03 10° ENE
Unknown 4.1 03:16:52 14° SW 03:20:13 55° SE 03:24:17 10° ENE
Cosmos 1833 4.2 03:14:42 10° NNW 03:20:22 87° WSW 03:25:59 10° SSE
Cosmos 1340 4.0 03:18:15 10° N 03:21:54 44° ENE 03:25:32 10° SSE
Unknown 4.0 03:18:52 14° SW 03:22:16 59° SE 03:26:21 10° ENE
ADEOS 4.0 03:18:20 10° N 03:23:16 44° WNW 03:28:11 10° SW
Unknown 4.0 03:20:23 14° SW 03:23:52 59° SE 03:27:58 10° ENE
Unknown 4.0 03:21:11 14° SW 03:24:42 60° SE 03:28:48 10° ENE
Cosmos 2369 Rocket 2.5 03:20:01 13° SW 03:24:57 52° WNW 03:30:32 10° NNE
ATLAS 3B R/B 2.6 03:18:38 11° SW 03:25:05 78° NW 03:31:41 10° NE
Unknown 4.0 03:23:28 13° SW 03:27:06 60° SE 03:31:12 10° ENE
Cosmos 1782 4.0 03:27:49 15° WSW 03:29:55 23° WNW 03:33:07 10° NNW
Unknown 3.9 03:26:46 12° SW 03:30:30 66° SE 03:34:37 10° ENE
Unknown 3.7 03:28:08 16° W 03:30:56 52° NNW 03:34:37 10° NE
Unknown 3.9 03:28:24 12° SW 03:32:11 67° SE 03:36:18 10° ENE
ISS -2.0 03:32:39 15° WSW 03:33:29 16° SW 03:35:36 10° S
Unknown 3.8 03:29:58 12° SW 03:33:48 70° SE 03:37:56 10° ENE
MSX 3.9 03:29:37 10° N 03:35:19 62° WNW 03:40:57 10° SSW
Unknown 3.8 03:31:35 11° SW 03:35:30 72° SE 03:39:38 10° ENE
S3M 4.2 03:30:20 10° N 03:36:30 76° E 03:42:43 10° SSE
USA 267 3.4 03:30:59 10° ESE 03:37:32 82° NE 03:44:06 10° NW
COSMOS 2441 4.5 03:32:57 10° N 03:37:43 58° WNW 03:42:30 10° SSW
Lacrosse 5 rocket 1.4 03:33:44 10° NW 03:37:58 71° SW 03:42:24 10° SE
Unknown 3.7 03:34:49 11° SW 03:38:50 76° SE 03:42:59 10° ENE
Cosmos 1862 Rocket 3.6 03:34:32 10° SSW 03:38:57 61° W 03:43:24 10° N
Unknown 3.7 03:36:26 10° SW 03:40:31 78° SE 03:44:38 10° ENE
Cosmos 1400 Rocket 3.3 03:38:03 10° SW 03:41:42 37° WNW 03:45:21 10° N
Unknown 3.7 03:38:04 10° SW 03:42:12 80° SE 03:46:22 10° ENE
Unknown 3.7 03:39:34 10° SW 03:43:43 80° SE 03:47:52 10° ENE
BREEZE-M DEB (TANK) 3.4 03:35:54 10° WNW 03:44:12 79° NNE 03:47:12 10° ESE
Iridium 4 Rocket 3.9 03:40:04 10° SW 03:44:15 31° W 03:48:11 10° NNW
Unknown 3.7 03:41:33 10° SW 03:45:42 84° SE 03:49:51 10° ENE
Unknown 3.7 03:42:46 10° SW 03:46:54 80° SE 03:51:03 10° ENE
CZ-4B R/B 3.2 03:43:20 10° N 03:47:49 67° WNW 03:52:18 10° SSW
Cosmos 1500 3.2 03:45:08 10° NNW 03:48:49 56° W 03:52:29 10° S
Cosmos 1656 Rocket 3.7 03:43:20 10° SSW 03:49:01 74° WNW 03:54:43 10° NNE
Unknown 3.7 03:46:05 10° SW 03:50:14 84° SE 03:54:24 10° ENE
Cosmos 2344 4.2 03:43:07 10° WSW 03:50:15 43° NW 03:58:27 10° NE
Cosmos 1461 3.6 03:47:41 10° NW 03:51:16 31° WSW 03:54:55 10° S
Unknown 3.7 03:47:46 10° SW 03:51:55 86° SE 03:56:04 10° ENE
PSLV R/B 3.9 03:49:10 10° NNE 03:53:16 89° E 03:57:16 10° SSW
Unknown 3.6 03:49:36 10° WSW 03:53:45 86° NW 03:57:55 10° ENE
Unknown 3.6 03:51:04 10° WSW 03:55:13 90° NW 03:59:23 10° ENE
Unknown 3.6 03:52:44 10° WSW 03:56:54 87° NNW 04:01:03 10° ENE
Cosmos 1536 2.8 03:54:44 10° NNW 03:58:40 60° W 04:02:35 10° S
COSMO-SKYMED 1 2.7 03:54:26 10° SSE 03:58:45 84° ENE 04:03:08 10° NNW
Cosmos 1812 3.0 03:55:45 10° SSW 03:59:27 45° WNW 04:03:12 10° N
Unknown 3.6 03:56:04 10° WSW 04:00:13 84° NNW 04:04:24 10° ENE
